EW8275 Weather Reports


Display with metric or nautical units.
time (UTC)temp
F
wind
direction
speed
MPH
gust
MPH
rain 1hr
in
rain 24hr
in
rain mn
in
humidity
%
barometer
mb
20260905081630 65 237 2.0 12.0 0.00 0.39 0.00 77 1018.9
20260905081129 64 48 4.0 12.0 0.00 0.39 0.00 78 1018.8
20260905080644 64 201 3.0 9.0 0.00 0.39 0.00 79 1018.7
20260905080124 64 236 2.0 10.0 0.00 0.39 0.00 79 1018.7
20260905075622 63 251 4.0 12.0 0.00 0.39 0.00 79 1018.6
20260905075114 64 51 3.0 12.0 0.00 0.39 0.00 78 1018.5
20260905074633 63 232 3.0 10.0 0.00 0.39 0.00 78 1018.6
20260905074142 63 242 5.0 8.0 0.00 0.39 0.00 79 1018.6
20260905073628 63 279 4.0 10.0 0.00 0.39 0.00 80 1018.5
20260905073132 63 159 3.0 12.0 0.00 0.39 0.00 80 1018.4
20260905072643 63 291 5.0 13.0 0.00 0.39 0.00 81 1018.4
20260905072122 62 240 4.0 9.0 0.00 0.39 0.00 82 1018.4
20260905071634 62 333 2.0 10.0 0.00 0.39 0.00 82 1018.3
20260905071152 62 268 3.0 10.0 0.00 0.39 0.00 82 1018.1
20260905070630 62 274 5.0 9.0 0.00 0.39 0.00 82 1018.1
20260905070140 62 250 3.0 9.0 0.00 0.39 0.00 83 1018.2
20260905065619 62 227 3.0 9.0 0.00 0.39 0.00 83 1018.2
20260905065141 62 240 4.0 14.0 0.00 0.39 0.00 83 1018.1
20260905064649 62 294 4.0 14.0 0.00 0.39 0.00 83 1018.0
20260905064124 62 235 4.0 10.0 0.00 0.39 0.00 84 1017.9
20260905063619 62 279 3.0 10.0 0.00 0.39 0.00 85 1017.8
20260905063153 62 101 3.0 10.0 0.00 0.39 0.00 86 1017.8
20260905062633 61 221 2.0 7.0 0.00 0.39 0.00 88 1017.8
20260905062128 60 213 2.0 6.0 0.00 0.39 0.00 89 1017.7
20260905061643 60 188 2.0 6.0 0.00 0.39 0.00 90 1017.6
20260905061115 59 217 2.0 6.0 0.00 0.39 0.00 90 1017.5
20260905060622 59 242 1.0 3.0 0.00 0.39 0.00 91 1017.5
20260905060118 58 190 1.0 3.0 0.00 0.39 0.00 92 1017.5
20260905055645 58 209 2.0 3.0 0.00 0.39 0.00 92 1017.5
20260905055201 57 241 1.0 2.0 0.00 0.39 0.00 92 1017.5
20260905054621 57 194 1.0 4.0 0.00 0.39 0.00 92 1017.4
20260905054117 57 188 1.0 4.0 0.00 0.39 0.00 92 1017.3
20260905053622 57 221 1.0 4.0 0.00 0.39 0.00 92 1017.3
20260905053139 57 240 1.0 4.0 0.00 0.39 0.00 92 1017.2
20260905052654 56 215 1.0 4.0 0.00 0.39 0.00 92 1017.1
20260905052126 56 185 1.0 3.0 0.00 0.39 0.00 92 1017.1
20260905051626 56 217 0.0 3.0 0.00 0.39 0.00 92 1017.0
20260905051143 56 217 1.0 4.0 0.00 0.39 0.00 92 1016.9
20260905050630 56 163 1.0 4.0 0.00 0.39 0.00 92 1016.9
20260905050140 56 204 1.0 4.0 0.00 0.39 0.00 92 1016.9
20260905045625 56 220 1.0 4.0 0.00 0.39 0.00 92 1016.9
20260905045133 56 184 2.0 4.0 0.00 0.39 0.00 92 1016.8
20260905044633 56 207 1.0 2.0 0.00 0.39 0.00 92 1016.8
20260905044117 56 207 1.0 2.0 0.00 0.39 0.00 92 1016.6
20260905043614 55 207 0.0 2.0 0.00 0.39 0.00 92 1016.6
20260905043144 55 207 0.0 2.0 0.00 0.39 0.00 92 1016.6
20260905042620 55 207 1.0 2.0 0.00 0.39 0.00 92 1016.7
20260905042125 55 207 0.0 3.0 0.00 0.39 0.00 92 1016.6
20260905041630 55 207 1.0 3.0 0.00 0.39 0.00 92 1016.7
20260905041120 55 207 0.0 2.0 0.00 0.39 0.00 91 1016.6
20260905040645 55 207 0.0 2.0 0.00 0.39 0.00 91 1016.5
20260905040112 55 207 1.0 1.0 0.00 0.39 0.00 91 1016.5
20260905035624 55 207 0.0 2.0 0.00 0.39 0.00 90 1016.6
20260905035120 55 207 1.0 2.0 0.00 0.39 0.00 90 1016.5
20260905034650 55 207 0.0 2.0 0.00 0.39 0.00 90 1016.5
20260905034119 55 207 0.0 2.0 0.00 0.39 0.00 90 1016.4
20260905033626 55 207 1.0 3.0 0.00 0.39 0.00 90 1016.3
20260905033128 56 203 1.0 5.0 0.00 0.39 0.00 90 1016.4
20260905032644 56 203 1.0 5.0 0.00 0.39 0.00 89 1016.4
20260905032130 56 218 1.0 4.0 0.00 0.39 0.00 89 1016.3
20260905031647 56 220 1.0 3.0 0.00 0.39 0.00 89 1016.3
20260905031118 56 205 2.0 3.0 0.00 0.39 0.00 89 1016.2
20260905030654 56 206 1.0 3.0 0.00 0.39 0.00 88 1016.2
20260905030129 56 192 1.0 3.0 0.00 0.39 0.00 88 1016.2
20260905025647 56 216 1.0 3.0 0.00 0.39 0.00 88 1016.1
20260905025131 56 216 1.0 3.0 0.00 0.39 0.00 88 1016.0
20260905024629 56 259 0.0 2.0 0.00 0.39 0.00 88 1016.1
20260905024129 56 259 0.0 2.0 0.00 0.39 0.00 88 1016.0
20260905023617 56 259 1.0 2.0 0.00 0.39 0.00 88 1016.0
20260905023138 56 259 1.0 2.0 0.00 0.39 0.00 88 1015.9
20260905022621 56 259 1.0 2.0 0.00 0.39 0.00 87 1016.0
20260905022120 56 259 0.0 2.0 0.00 0.39 0.00 87 1015.9
20260905021625 56 259 1.0 2.0 0.00 0.39 0.00 87 1015.9
20260905021133 57 259 0.0 2.0 0.00 0.39 0.00 86 1015.9
20260905020620 57 238 1.0 2.0 0.00 0.39 0.00 86 1015.9
20260905020132 57 221 0.0 2.0 0.00 0.39 0.00 86 1015.9
20260905015620 57 273 0.0 2.0 0.00 0.39 0.00 86 1015.9
20260905015113 57 273 1.0 4.0 0.00 0.39 0.00 86 1015.9
20260905014645 57 281 1.0 4.0 0.00 0.39 0.00 85 1015.9
20260905014118 58 211 1.0 2.0 0.00 0.39 0.00 85 1015.8
20260905013630 58 202 0.0 4.0 0.00 0.39 0.00 84 1015.6
20260905013143 58 266 1.0 4.0 0.00 0.39 0.00 84 1015.6
20260905012631 58 262 1.0 3.0 0.00 0.39 0.00 84 1015.6
20260905012140 58 277 0.0 4.0 0.00 0.39 0.00 84 1015.6
20260905011625 59 296 1.0 5.0 0.00 0.39 0.00 84 1015.6
20260905011126 59 277 1.0 5.0 0.00 0.39 0.00 83 1015.6
20260905010644 59 244 1.0 4.0 0.00 0.39 0.00 84 1015.6
20260905010123 59 291 1.0 4.0 0.00 0.39 0.00 83 1015.6
20260905005634 59 346 1.0 5.0 0.00 0.39 0.00 83 1015.7
20260905005139 59 238 2.0 5.0 0.00 0.39 0.00 83 1015.6
20260905004626 59 229 2.0 4.0 0.00 0.39 0.00 83 1015.5
20260905004119 59 235 2.0 5.0 0.00 0.39 0.00 83 1015.6
20260905003625 59 263 2.0 7.0 0.00 0.39 0.00 84 1015.6
20260905003117 59 280 1.0 7.0 0.00 0.39 0.00 84 1015.5
20260905002634 59 290 1.0 4.0 0.00 0.39 0.00 83 1015.5
20260905002128 59 273 1.0 4.0 0.00 0.39 0.00 83 1015.5
20260905001631 59 286 0.0 3.0 0.00 0.39 0.00 83 1015.5
20260905001143 59 286 1.0 4.0 0.00 0.39 0.00 83 1015.5
20260905000632 59 277 1.0 4.0 0.00 0.39 0.00 83 1015.5
20260905000132 59 241 1.0 3.0 0.00 0.39 0.00 83 1015.5
20260904235642 59 292 1.0 2.0 0.00 0.39 0.00 82 1015.4
20260904235121 59 281 1.0 3.0 0.00 0.39 0.00 81 1015.4
20260904234646 59 312 0.0 5.0 0.00 0.39 0.00 81 1015.4
20260904234119 59 271 1.0 5.0 0.00 0.39 0.00 81 1015.3
20260904233621 59 289 1.0 8.0 0.00 0.39 0.00 81 1015.2
20260904233147 59 300 1.0 4.0 0.00 0.39 0.00 81 1015.2
20260904232644 60 286 0.0 4.0 0.00 0.39 0.00 80 1015.3
20260904232124 60 313 1.0 3.0 0.00 0.39 0.00 80 1015.2
20260904231629 60 307 1.0 3.0 0.00 0.39 0.00 79 1015.1
20260904231114 60 238 1.0 3.0 0.00 0.39 0.00 80 1015.2
20260904230614 60 272 1.0 3.0 0.00 0.39 0.00 79 1015.1
20260904230136 60 55 1.0 5.0 0.00 0.39 0.00 79 1015.2
20260904225647 60 246 1.0 5.0 0.00 0.39 0.00 78 1015.2
20260904225126 60 238 1.0 6.0 0.00 0.39 0.00 78 1015.1
20260904224633 60 205 2.0 6.0 0.00 0.39 0.00 78 1015.1
20260904224114 61 292 1.0 6.0 0.00 0.39 0.00 78 1015.1
20260904223632 61 316 3.0 7.0 0.00 0.39 0.00 78 1015.0
20260904223113 61 283 2.0 7.0 0.00 0.39 0.00 78 1015.0
20260904222642 61 266 2.0 5.0 0.00 0.39 0.00 77 1015.0
20260904222150 61 240 1.0 6.0 0.00 0.39 0.00 77 1015.0
20260904221627 61 271 2.0 6.0 0.00 0.39 0.00 77 1015.0
20260904221120 61 327 3.0 6.0 0.00 0.39 0.00 77 1015.0
20260904220654 61 263 2.0 14.0 0.00 0.39 0.00 77 1015.0
20260904220147 61 264 4.0 14.0 0.00 0.39 0.00 76 1014.9
20260904215638 61 330 2.0 6.0 0.00 0.39 0.08 77 1014.8
20260904215120 61 311 2.0 7.0 0.00 0.39 0.08 77 1014.7
20260904214615 61 323 2.0 7.0 0.00 0.39 0.08 78 1014.7
20260904214136 61 295 2.0 7.0 0.00 0.39 0.08 78 1014.7
20260904213620 61 244 1.0 4.0 0.00 0.39 0.08 78 1014.7
20260904213123 61 279 2.0 6.0 0.00 0.39 0.08 78 1014.7
20260904212634 62 260 1.0 11.0 0.00 0.39 0.08 77 1014.6
20260904212118 62 284 3.0 11.0 0.00 0.39 0.08 77 1014.5
20260904211619 62 259 2.0 6.0 0.00 0.39 0.08 77 1014.6
20260904211143 62 286 1.0 6.0 0.00 0.39 0.08 76 1014.5
20260904210619 62 269 2.0 7.0 0.00 0.39 0.08 76 1014.5
20260904210142 62 257 2.0 7.0 0.00 0.39 0.08 76 1014.5
20260904205626 62 261 2.0 5.0 0.00 0.39 0.08 76 1014.4
20260904205118 62 246 2.0 6.0 0.00 0.39 0.08 76 1014.5
20260904204630 62 233 2.0 6.0 0.00 0.39 0.08 76 1014.4
20260904204125 62 266 2.0 7.0 0.00 0.39 0.08 76 1014.4
20260904203654 62 302 2.0 10.0 0.00 0.39 0.08 76 1014.4
20260904203129 63 304 2.0 10.0 0.00 0.39 0.08 75 1014.4
20260904202640 63 234 2.0 6.0 0.00 0.39 0.08 75 1014.3
20260904202131 63 172 2.0 7.0 0.00 0.39 0.08 75 1014.3
20260904201619 63 249 3.0 7.0 0.00 0.39 0.08 76 1014.3
20260904201150 63 184 3.0 7.0 0.00 0.39 0.08 76 1014.3
20260904200630 63 225 2.0 11.0 0.00 0.39 0.08 77 1014.3
20260904200113 63 279 4.0 11.0 0.00 0.39 0.08 77 1014.3
20260904195634 63 242 2.0 5.0 0.00 0.39 0.08 77 1014.2
20260904195132 63 266 2.0 6.0 0.00 0.39 0.08 77 1014.1
20260904194644 63 289 2.0 6.0 0.00 0.39 0.08 77 1014.1
20260904194126 63 338 2.0 5.0 0.00 0.39 0.08 76 1013.9
20260904193643 63 233 2.0 6.0 0.00 0.39 0.08 76 1014.0
20260904193124 63 281 2.0 10.0 0.00 0.39 0.08 76 1013.9
20260904192615 63 31 3.0 10.0 0.00 0.39 0.08 75 1013.9
20260904192112 63 273 2.0 9.0 0.00 0.39 0.08 75 1013.8
20260904191647 63 251 3.0 9.0 0.00 0.39 0.08 75 1013.8
20260904191135 63 281 3.0 8.0 0.00 0.39 0.08 76 1013.8
20260904190626 63 209 1.0 5.0 0.00 0.39 0.08 75 1013.5
20260904190129 63 221 3.0 7.0 0.00 0.39 0.08 76 1013.5
20260904185644 63 5 2.0 12.0 0.00 0.39 0.08 76 1013.4
20260904185129 63 231 4.0 12.0 0.00 0.39 0.08 78 1013.4
20260904184626 63 226 2.0 5.0 0.00 0.39 0.08 78 1013.3
20260904184133 63 269 2.0 5.0 0.00 0.39 0.08 78 1013.3
20260904183614 63 309 2.0 6.0 0.00 0.39 0.08 78 1013.3
20260904183150 63 233 2.0 8.0 0.00 0.39 0.08 78 1013.2
20260904182620 63 331 2.0 8.0 0.00 0.39 0.08 78 1013.2
20260904182127 64 297 1.0 9.0 0.00 0.39 0.08 77 1013.1
20260904181634 64 271 2.0 9.0 0.00 0.39 0.08 77 1013.1
20260904181128 64 300 2.0 6.0 0.00 0.39 0.08 76 1013.1
20260904180619 64 257 3.0 8.0 0.00 0.39 0.08 77 1013.1
20260904180151 64 267 3.0 9.0 0.00 0.39 0.08 77 1013.1
20260904175637 64 291 4.0 9.0 0.00 0.39 0.08 77 1012.9
20260904175110 64 286 4.0 9.0 0.00 0.39 0.08 79 1013.0
20260904174639 65 292 2.0 11.0 0.00 0.39 0.08 78 1012.9
20260904174116 65 5 5.0 15.0 0.00 0.39 0.08 77 1012.7
20260904173644 65 300 4.0 15.0 0.00 0.39 0.08 77 1012.7
20260904173110 65 219 4.0 11.0 0.00 0.39 0.08 77 1012.6
20260904172640 65 317 5.0 11.0 0.00 0.39 0.08 77 1012.6
20260904172121 65 272 2.0 12.0 0.00 0.39 0.08 77 1012.6
20260904171626 65 229 4.0 12.0 0.00 0.39 0.08 77 1012.5
20260904171131 65 224 2.0 8.0 0.00 0.39 0.08 78 1012.4
20260904170642 65 346 3.0 13.0 0.00 0.39 0.08 78 1012.5
20260904170121 65 261 2.0 13.0 0.00 0.39 0.08 77 1012.2
20260904165620 65 261 3.0 13.0 0.00 0.39 0.08 78 1012.3
20260904165140 65 185 4.0 13.0 0.00 0.39 0.08 78 1012.4
20260904164629 65 267 4.0 8.0 0.00 0.39 0.08 79 1012.3
20260904164127 65 307 3.0 8.0 0.00 0.39 0.08 79 1012.1
20260904163621 65 227 3.0 10.0 0.00 0.39 0.08 78 1012.0
20260904163133 65 245 3.0 9.0 0.00 0.39 0.08 79 1012.0
20260904162622 66 182 3.0 11.0 0.00 0.39 0.08 79 1012.1
20260904162125 66 244 5.0 11.0 0.00 0.39 0.08 77 1011.8
20260904161636 66 290 4.0 8.0 0.00 0.39 0.08 79 1011.7
20260904161202 66 281 3.0 13.0 0.00 0.39 0.08 79 1011.9
20260904160622 66 164 3.0 13.0 0.00 0.39 0.08 79 1011.9
20260904160128 66 234 3.0 10.0 0.00 0.39 0.08 79 1011.7
20260904155625 66 287 3.0 9.0 0.00 0.39 0.08 79 1011.9
20260904155131 66 302 3.0 8.0 0.00 0.39 0.08 78 1011.7
20260904154624 66 186 2.0 16.0 0.00 0.39 0.08 79 1011.6
20260904154127 66 217 5.0 12.0 0.00 0.39 0.08 81 1011.5
20260904153642 66 271 4.0 12.0 0.00 0.39 0.08 80 1011.7
20260904153116 66 271 3.0 9.0 0.00 0.39 0.08 81 1011.9
20260904152618 66 259 4.0 16.0 0.00 0.39 0.08 81 1011.6
20260904152120 66 271 3.0 16.0 0.00 0.39 0.08 81 1011.5
20260904151618 66 223 3.0 13.0 0.00 0.39 0.08 81 1011.4
20260904151126 67 313 4.0 10.0 0.00 0.39 0.08 80 1011.5
20260904150611 67 281 4.0 13.0 0.00 0.39 0.08 82 1011.4
20260904150123 67 261 5.0 11.0 0.00 0.39 0.08 84 1011.2
20260904145640 67 301 4.0 11.0 0.00 0.39 0.08 84 1011.4
20260904145128 67 287 5.0 11.0 0.00 0.39 0.08 84 1011.5
20260904144618 68 209 4.0 14.0 0.00 0.39 0.08 85 1011.3
20260904144130 68 236 3.0 14.0 0.00 0.39 0.08 86 1011.2
20260904143641 68 278 4.0 11.0 0.00 0.39 0.08 86 1011.1
20260904143118 67 31 3.0 14.0 0.00 0.39 0.08 87 1011.1
20260904142640 66 256 4.0 14.0 0.00 0.39 0.08 87 1011.1
20260904142127 67 244 3.0 9.0 0.00 0.39 0.08 88 1011.1
20260904141644 66 274 2.0 11.0 0.00 0.39 0.08 87 1011.0
20260904141128 66 277 4.0 13.0 0.00 0.39 0.08 87 1010.9
20260904140703 66 232 4.0 13.0 0.00 0.39 0.08 88 1010.8
20260904140121 66 265 2.0 12.0 0.00 0.39 0.08 88 1010.8
20260904135648 66 142 3.0 12.0 0.00 0.39 0.08 88 1010.9
20260904135111 67 302 3.0 9.0 0.00 0.39 0.08 89 1011.1
20260904134631 66 242 3.0 10.0 0.00 0.39 0.08 89 1010.8
20260904134113 66 240 4.0 12.0 0.00 0.39 0.08 89 1010.8
20260904133626 66 298 3.0 15.0 0.00 0.39 0.08 91 1010.5
20260904133150 66 288 4.0 13.0 0.00 0.39 0.08 91 1010.7
20260904132634 66 302 3.0 8.0 0.00 0.39 0.08 92 1010.6
20260904132114 65 234 3.0 16.0 0.00 0.39 0.08 91 1010.3
20260904131622 65 193 3.0 16.0 0.04 0.39 0.08 92 1010.3
20260904131117 65 242 4.0 10.0 0.04 0.39 0.08 92 1010.3
20260904130620 65 252 3.0 10.0 0.04 0.39 0.08 92 1010.5
20260904130127 65 199 2.0 11.0 0.04 0.39 0.08 92 1010.3
20260904125618 65 178 4.0 11.0 0.04 0.39 0.08 92 1010.3
20260904125131 65 234 2.0 14.0 0.04 0.39 0.08 92 1010.4
20260904124644 65 216 5.0 14.0 0.04 0.39 0.08 92 1010.1
20260904124134 65 214 2.0 12.0 0.04 0.39 0.08 93 1010.2
20260904123616 65 88 2.0 12.0 0.04 0.39 0.08 94 1010.2
20260904123120 65 232 3.0 10.0 0.08 0.39 0.08 94 1010.1
20260904122627 65 146 3.0 11.0 0.08 0.39 0.08 94 1010.1
20260904122115 65 263 5.0 11.0 0.08 0.39 0.08 94 1010.2
20260904121701 65 271 3.0 11.0 0.08 0.35 0.07 94 1010.1
20260904121140 65 230 4.0 11.0 0.12 0.35 0.07 94 1010.0
20260904120623 65 194 4.0 6.0 0.12 0.35 0.07 94 1009.9
20260904120123 65 221 2.0 7.0 0.12 0.35 0.07 94 1010.0
20260904115637 65 285 3.0 10.0 0.12 0.35 0.07 94 1009.9
20260904115120 65 226 2.0 7.0 0.16 0.35 0.07 94 1009.8
20260904114640 65 197 3.0 7.0 0.20 0.35 0.07 94 1009.7
20260904114141 65 277 2.0 12.0 0.35 0.35 0.07 94 1009.7
20260904113625 65 338 4.0 12.0 0.31 0.31 0.06 94 1009.7
20260904113123 65 321 3.0 8.0 0.31 0.31 0.06 93 1009.6
20260904112639 65 272 3.0 10.0 0.31 0.31 0.06 93 1009.7
20260904112124 65 272 2.0 10.0 0.31 0.31 0.06 93 1009.8
20260904111624 65 294 3.0 8.0 0.28 0.28 0.06 93 1009.7
20260904111137 64 236 2.0 8.0 0.24 0.24 0.05 93 1009.7
20260904110620 64 215 4.0 8.0 0.24 0.24 0.05 92 1009.6
20260904110112 65 253 2.0 7.0 0.24 0.24 0.05 91 1009.6
20260904105651 65 227 3.0 7.0 0.24 0.24 0.05 90 1009.6
20260904105115 66 321 3.0 11.0 0.20 0.20 0.04 88 1009.5
20260904104616 68 261 2.0 11.0 0.16 0.16 0.03 85 1009.6
20260904104140 70 276 4.0 20.0 0.00 0.00 0.00 85 1009.5
20260904103616 70 220 3.0 20.0 0.00 0.00 0.00 84 1009.1
20260904103123 71 211 5.0 19.0 0.00 0.00 0.00 83 1009.3
20260904102636 71 200 5.0 20.0 0.00 0.00 0.00 83 1008.9
20260904102138 71 192 8.0 20.0 0.00 0.00 0.00 82 1008.9
20260904101627 71 174 6.0 14.0 0.00 0.00 0.00 82 1008.8
20260904101131 71 238 5.0 17.0 0.00 0.00 0.00 82 1008.9
20260904100619 71 238 6.0 18.0 0.00 0.00 0.00 81 1008.9
20260904100114 71 211 7.0 18.0 0.00 0.00 0.00 82 1008.9
20260904095648 71 333 7.0 21.0 0.00 0.00 0.00 82 1008.8
20260904095147 71 248 6.0 23.0 0.00 0.00 0.00 82 1008.9
20260904094625 71 203 6.0 22.0 0.00 0.00 0.00 82 1008.8
20260904094119 71 236 9.0 19.0 0.00 0.00 0.00 82 1008.9
20260904093624 71 98 7.0 21.0 0.00 0.00 0.00 82 1009.0
20260904093131 71 193 14.0 22.0 0.00 0.00 0.00 82 1009.3
20260904092633 71 263 7.0 21.0 0.00 0.00 0.00 82 1008.9
20260904092139 71 153 6.0 20.0 0.00 0.00 0.00 82 1009.0
20260904091623 71 218 7.0 18.0 0.00 0.00 0.00 82 1008.9
20260904091128 71 273 6.0 25.0 0.00 0.00 0.00 83 1009.0
20260904090631 71 200 10.0 24.0 0.00 0.00 0.00 82 1009.1
20260904090120 71 219 10.0 20.0 0.00 0.00 0.00 82 1008.9
20260904085658 72 230 10.0 20.0 0.00 0.00 0.00 81 1008.8
20260904085119 72 175 7.0 23.0 0.00 0.00 0.00 81 1008.9
20260904084625 72 193 8.0 23.0 0.00 0.00 0.00 81 1008.7
20260904084114 71 204 7.0 22.0 0.00 0.00 0.00 82 1008.7
20260904083659 71 212 9.0 20.0 0.00 0.00 0.00 83 1008.6
20260904083127 71 198 6.0 25.0 0.00 0.00 0.00 83 1008.7
20260904082637 71 217 11.0 25.0 0.00 0.00 0.00 83 1009.0
20260904082154 71 236 6.0 19.0 0.00 0.00 0.00 83 1008.8